Location: Hermaringen
(48.5952°N, 10.2585°E)
Time: 02:48:54
(UTC+00:00)

Cosmos 1862 - Pass Details

Date: 18 November 2025
Orbit: 473 x 486 km, 82.5° (Epoch: 04 December)

Event Time Altitude Azimuth Distance (km) Brightness Sun altitude
Rises 17:49:36 0° 344° (NNW) 2,543 6.9 -21.8°
Reaches altitude 10° 17:51:45 10° 338° (NNW) 1,662 6.0 -22.2°
Maximum altitude 17:55:14 45° 266° (W) 670 4.1 -22.8°
Drops below altitude 10° 17:58:41 10° 193° (SSW) 1,656 5.9 -23.3°
Sets 18:00:50 0° 187° (S) 2,533 6.8 -23.7°
